TimeCST,TemperatureF,Dew PointF,Humidity,Sea Level PressureIn,VisibilityMPH,Wind Direction,Wind SpeedMPH,Gust SpeedMPH,PrecipitationIn,Events,Conditions,WindDirDegrees,DateUTC
12:52 AM,12.9,3.9,67,30.18,10.0,NNW,10.4,-,N/A,,Scattered Clouds,330,2013-01-01 06:52:00
1:52 AM,12.9,3.9,67,30.18,10.0,NW,9.2,-,N/A,,Partly Cloudy,320,2013-01-01 07:52:00
2:52 AM,12.0,3.0,67,30.19,10.0,NNW,8.1,-,N/A,,Partly Cloudy,330,2013-01-01 08:52:00
3:52 AM,10.0,1.9,70,30.19,10.0,NW,6.9,-,N/A,,Partly Cloudy,320,2013-01-01 09:52:00
4:52 AM,10.0,1.9,70,30.19,10.0,NW,9.2,-,N/A,,Partly Cloudy,320,2013-01-01 10:52:00
5:52 AM,9.0,1.9,73,30.22,10.0,NW,9.2,-,N/A,,Clear,310,2013-01-01 11:52:00
6:52 AM,8.1,1.0,73,30.23,10.0,NW,9.2,-,N/A,,Scattered Clouds,310,2013-01-01 12:52:00
7:52 AM,7.0,1.0,77,30.26,10.0,WNW,6.9,-,N/A,,Scattered Clouds,300,2013-01-01 13:52:00
8:52 AM,8.6,1.4,73,30.22,10.0,NW,8.1,-,N/A,,Partly Cloudy,310,2013-01-01 14:52:00
9:52 AM,12.0,3.0,67,30.25,10.0,NW,4.6,-,N/A,,Partly Cloudy,310,2013-01-01 15:52:00
10:52 AM,15.1,3.9,61,30.22,10.0,NNW,9.2,-,N/A,,Partly Cloudy,340,2013-01-01 16:52:00
11:52 AM,17.1,3.9,56,30.22,10.0,Variable,5.8,-,N/A,,Partly Cloudy,0,2013-01-01 17:52:00
12:52 PM,17.1,3.0,54,30.21,10.0,West,5.8,-,N/A,,Partly Cloudy,280,2013-01-01 18:52:00
1:52 PM,17.1,1.9,52,30.20,10.0,West,8.1,-,N/A,,Partly Cloudy,280,2013-01-01 19:52:00
2:52 PM,17.1,3.0,54,30.21,10.0,WNW,10.4,-,N/A,,Partly Cloudy,300,2013-01-01 20:52:00
3:52 PM,16.0,1.9,54,30.20,10.0,West,9.2,-,N/A,,Partly Cloudy,280,2013-01-01 21:52:00
4:52 PM,14.0,1.0,56,30.20,10.0,West,9.2,-,N/A,,Clear,280,2013-01-01 22:52:00
5:52 PM,12.9,1.0,59,30.20,10.0,West,6.9,-,N/A,,Clear,280,2013-01-01 23:52:00
6:52 PM,12.0,1.9,64,30.21,10.0,West,6.9,-,N/A,,Clear,260,2013-01-02 00:52:00
7:52 PM,12.0,1.9,64,30.20,10.0,West,9.2,-,N/A,,Clear,270,2013-01-02 01:52:00
8:52 PM,12.0,1.9,64,30.19,10.0,West,6.9,-,N/A,,Clear,270,2013-01-02 02:52:00
9:52 PM,10.9,1.0,64,30.18,10.0,WSW,3.5,-,N/A,,Clear,240,2013-01-02 03:52:00
10:52 PM,9.0,1.0,70,30.19,10.0,SW,4.6,-,N/A,,Clear,230,2013-01-02 04:52:00
11:52 PM,8.1,-0.0,70,30.18,10.0,SW,3.5,-,N/A,,Clear,230,2013-01-02 05:52:00